Вернуться в каталог

STARLINK-34398

АктивенСвязьVLEO
NORAD 64445·PAYLOAD·🇺🇸 United States

Запущен Jun 18, 2025 с Cape Canaveral Space Force Station

Loading…

Ближайшие Пролёты (ближайшие 24 часа)

TLE

СвежийSource: CelesTrak SupGP

Эпоха: Sep 15, 2026, 03:50 UTC

1 64445C 25130H   26258.16020833 -.00007315  00000+0 -21605-3 0  2582
2 64445  53.1565 287.0112 0001085 107.8277 209.1613 15.34406401    18

Отслеживайте STARLINK-34398 в реальном времени с AllMySat

Download on the App Store